#timestamp,LO_Frequency,Hit,StdDev 
1593867615.1,286047004.7,N
1593867616.0,286047004.7,N
1593867635.8,286047007.4,N
1593867655.6,286047007.4,N
1593867675.5,286047007.5,N
1593867695.3,286047004.9,N
1593867715.1,286047006.7,N
1593867735.9,286047007.0,N
1593867755.7,286047006.7,N
1593867775.5,286047006.3,N
1593867795.4,286047005.0,N
1593867815.2,286047004.9,N
1593867835.0,286047006.4,N
1593867835.9,286047006.4,N
1593867855.8,286047007.3,Y
1593867875.6,286046999.8,P
1593867895.4,286047000.1,N
1593867915.3,286047002.1,N
1593867935.1,286047002.2,N
1593867955.8,286047002.6,N
1593867975.7,286047000.5,N
1593867995.5,286047002.8,N
1593868015.3,286047000.9,N
1593868035.2,286047000.7,N
1593868055.0,286047001.2,N
1593868055.9,286047001.2,N
1593868075.7,286046996.6,N
1593868095.6,286046999.2,N
1593868115.4,286046996.9,N
1593868135.3,286046998.7,N
1593868155.1,286046998.7,N
1593868156.0,286046998.7,N
1593868175.8,286046999.5,N
1593868195.7,286047000.2,N
1593868215.5,286047000.3,N
1593868235.3,286047001.2,N
1593868255.2,286047001.1,N
1593868275.9,286046999.0,N
1593868295.7,286046998.5,N
1593868315.6,286047000.6,N
1593868335.4,286047001.2,N
1593868355.2,286046998.5,N
1593868375.1,286047000.0,N
1593868376.0,286047000.0,N
1593868395.8,286047000.2,N
1593868415.6,286047001.1,N
1593868435.5,286046998.2,N
1593868455.3,286047000.9,N
1593868475.1,286046998.2,N
1593868495.9,286046998.1,N
1593868515.7,286046998.3,N
1593868535.5,286046998.6,N
1593868555.4,286047001.2,N
1593868575.2,286046999.9,N
1593868595.0,286046999.7,N
1593868595.9,286046999.7,N
1593868615.8,286047001.6,N
1593868635.6,286046999.8,N
1593868655.4,286047002.0,N
1593868675.3,286047002.4,N
1593868695.1,286047000.5,N
1593868715.9,286047000.6,N
1593868735.7,286047000.6,N
1593868755.5,286047000.0,N
1593868775.4,286047000.4,N
1593868795.2,286047000.7,N
1593868815.0,286047001.1,N
1593868815.9,286047001.1,N
1593868835.8,286046998.2,N
1593868855.6,286046998.3,N
1593868875.4,286046998.7,N
1593868895.3,286047000.9,N
1593868915.1,286046999.2,N
1593868916.0,286046999.2,N
1593868935.8,286046999.5,N
1593868955.7,286047000.6,N
1593868975.5,286046998.9,N
1593868995.3,286046999.6,N
1593869015.2,286047001.2,N
1593869035.9,286046996.7,N
1593869055.7,286046998.5,N
1593869075.6,286046999.3,N
1593869095.4,286047001.2,N
1593869115.2,286046998.7,N
1593869135.1,286046998.6,N
1593869136.0,286046998.6,N
1593869155.8,286046998.7,N
1593869175.6,286046999.1,N
1593869195.5,286046999.5,N
1593869215.3,286046999.3,N
1593869235.1,286046998.3,N
1593869255.9,286046999.3,N
1593869275.7,286046998.6,N
1593869295.5,286047000.0,N
1593869315.4,286046998.8,N
1593869335.2,286047001.0,N
1593869355.0,286046999.3,N
1593869356.0,286046999.3,N
1593869375.8,286046999.6,N
1593869395.6,286046998.9,N
1593869415.5,286046999.3,N
1593869435.3,286046996.9,Y
1593869455.1,286046998.5,P
1593869475.9,286046996.6,P
1593869495.7,286046998.8,N
1593869515.5,286046999.0,N
1593869535.4,286046999.3,N
1593869555.2,286046999.4,N
1593869575.0,286046999.6,N
1593869575.9,286046999.6,N
1593869595.8,286046998.3,N
1593869615.6,286046996.9,Y
1593869635.4,286047001.2,P
1593869655.3,286046998.2,N
1593869675.1,286046999.0,N
1593869695.8,286046998.9,N
1593869715.7,286046998.4,N
1593869735.5,286046998.5,N
1593869755.3,286046998.8,N
1593869775.2,286046996.6,Y
1593869795.0,286046999.3,P
1593869795.9,286046999.3,P
1593869815.7,286046998.9,P
1593869835.6,286046998.2,Y
1593869855.4,286047000.5,P
1593869875.2,286046999.9,N
1593869895.1,286047000.6,N
1593869896.0,286047000.6,N
1593869915.8,286047000.8,N
1593869935.7,286047000.4,N
1593869955.5,286047000.6,N
1593869975.3,286047000.8,N
1593869995.2,286047000.4,N
1593870015.9,286047000.8,N
1593870035.7,286046999.8,N
1593870055.6,286047001.1,N
1593870075.4,286047000.0,N
1593870095.2,286046998.1,Y
1593870115.1,286047000.7,P
1593870116.0,286047000.7,P
1593870135.8,286046999.8,N
1593870155.6,286047000.4,N
1593870175.5,286047001.2,Y
1593870195.3,286046998.1,P
1593870215.1,286046998.3,N
1593870235.9,286047000.8,N
1593870255.7,286046998.1,N
1593870275.5,286046998.8,N
1593870295.4,286046998.8,N
1593870315.2,286046999.1,N
1593870335.0,286046996.8,Y
1593870335.9,286046996.8,P
1593870355.8,286046998.7,N
1593870375.6,286047000.7,N
1593870395.4,286046998.5,N
1593870415.3,286046998.9,N
1593870435.1,286047001.0,N
1593870455.8,286047001.1,N
1593870475.7,286047000.6,N
1593870495.5,286047001.1,N
1593870515.3,286047001.2,N
1593870535.2,286047002.2,N
1593870555.0,286047001.1,N
1593870555.9,286047001.1,N
1593870575.8,286046998.3,N
1593870595.6,286046998.8,N
1593870615.4,286046998.2,N
1593870635.3,286046998.3,N
1593870655.1,286046999.1,N
1593870656.0,286046999.1,N
1593870675.8,286046999.5,N
1593870695.7,286046999.3,N
1593870715.5,286046998.8,N
1593870735.3,286046996.5,N
1593870755.2,286046999.5,N
1593870775.9,286046996.9,N
1593870795.7,286046996.5,N
1593870815.6,286046999.5,N
1593870835.4,286046999.6,N
1593870855.2,286046999.0,N
1593870875.1,286046998.8,N
1593870876.0,286046998.8,N
1593870895.8,286046998.6,N
1593870915.6,286046998.7,N
1593870935.5,286046999.5,N
1593870955.3,286046996.5,N
1593870975.1,286046996.9,N
1593870995.9,286046999.5,N
1593871015.7,286046998.8,N
1593871035.5,286047002.7,N
1593871055.4,286047000.7,N
1593871075.2,286047000.8,N
1593871095.0,286046998.5,N
1593871095.9,286046998.5,N
1593871115.8,286046998.6,N
1593871135.6,286047000.7,N
1593871155.4,286047000.9,N
1593871175.3,286046999.5,N
1593871195.1,286046999.1,N
